Flag for Comoros Weather past 2 weeks in Moroni, Comoros

Now
79 °F

Passing clouds.


Feels Like: 82 °F
Forecast: 72 / 85 °F
Wind: 1 mph from Northwest

Location: Hahaya International Airport

Current Time: Sep 30, 2014 at 7:54:29 PM

Latest Report: Sep 30, 2014 at 7:00 PM


Visibility: N/A

Pressure: 29.92 "Hg

Humidity: 84%

Dew point: 73 °F

Location of MoroniLocation

Historic Weather in Moroni — Graph

°F

Moroni temperature yesterday

Maximum temperature yesterday: 84 °F (at 1:00 PM)
Minimum temperature yesterday: 70 °F (at 6:00 AM)
Average temperature yesterday: 80 °F

Past Weeks' High & Low Weather Summary

 TemperatureHumidityPressure
High88 °F (Sep 16, 11:00 AM)94% (Sep 22, 6:00 AM)30.12 "Hg (Sep 22, 6:00 AM)
Low68 °F (Sep 17, 6:00 AM)40% (Sep 18, 1:00 PM)29.89 "Hg (Sep 21, 6:00 PM)
Average79 °F72%30.02 "Hg
* Reported Sep 15 6:00 PM — Sep 30 6:00 PM, Moroni, Weather by CustomWeather, © 2014

Note: Actual official high and low records may vary slightly from our data, if they occured in-between our weather recording intervals... More about our weather records

Advertising

Moroni weather history for previous 24 hours

 ConditionsComfort  
Time TempWeatherWind HumidityBarometerVisibility
6:00 PM
Sep 30
81 °FScattered clouds.3 mph79%29.92 "HgN/A
5:00 PM82 °FPartly sunny.5 mph74%29.92 "HgN/A
4:00 PM84 °FPartly sunny.5 mph66%29.92 "HgN/A
3:00 PM84 °FPartly sunny.6 mph66%29.92 "HgN/A
2:00 PM82 °FPartly sunny.5 mph70%29.95 "HgN/A
1:00 PM81 °FBroken clouds.5 mph84%29.98 "HgN/A
12:00 PM81 °FScattered clouds.6 mph79%29.98 "HgN/A
11:00 AM81 °FScattered clouds.5 mph79%30.01 "HgN/A
10:00 AM82 °FScattered clouds.6 mph66%30.01 "HgN/A
9:00 AM82 °FPassing clouds.7 mph70%30.01 "HgN/A
8:00 AM82 °FPassing clouds.6 mph66%30.01 "HgN/A
7:00 AM77 °FPassing clouds.7 mph79%29.98 "HgN/A
6:00 AM70 °FPassing clouds.6 mph88%29.95 "HgN/A
5:00 AM70 °FPassing clouds.5 mph94%29.95 "HgN/A
4:00 AM72 °FPassing clouds.5 mph78%29.92 "HgN/A
3:00 AM72 °FPassing clouds.2 mph88%29.95 "HgN/A
1:00 AM73 °FPassing clouds.2 mph89%29.98 "HgN/A
12:00 AM75 °FPassing clouds.3 mph94%29.98 "HgN/A
11:00 PM
Sep 29
75 °FPassing clouds.1 mph89%30.01 "HgN/A
10:00 PM77 °FPassing clouds.3 mph83%30.01 "HgN/A
9:00 PM77 °FPassing clouds.5 mph83%30.01 "HgN/A
8:00 PM79 °FPassing clouds.2 mph84%29.98 "HgN/A
7:00 PM79 °FPassing clouds.2 mph84%29.98 "HgN/A
Weather by CustomWeather, © 2014

See weather overviewHow to use our weather pages